Theta_e
318 325 327 328 329 330 329 328 327 326 322 325 324 323 325 326 328 328 325 326 326 326 324 318 310 310 309 313 321 320 320 320
317 324 327 329 329 329 328 328 326 322 320 325 323 326 324 327 328 328 328 327 327 321 322 318 309 308 308 311 318 320 320 320
320 325 328 329 328 328 328 327 325 322 319 324 324 324 327 324 325 327 328 328 327 324 323 321 308 307 307 308 313 319 319 318
323 326 328 329 328 328 327 327 324 322 320 324 323 324 324 325 324 326 325 327 327 324 323 321 308 307 309 309 316 318 316 317
324 326 328 328 328 328 328 327 325 321 320 324 323 324 322 323 324 325 326 327 327 325 325 322 309 308 312 314 314 316 316 317
324 327 327 328 328 328 328 327 325 321 320 321 323 323 324 325 323 325 322 326 325 325 324 325 314 313 317 319 314 319 320 318
321 325 328 328 328 328 328 327 326 321 318 321 323 323 323 325 325 322 322 325 325 325 324 322 320 316 314 320 316 316 320 318
320 325 327 328 328 328 328 327 326 321 317 320 323 324 324 324 324 323 323 323 324 323 322 320 320 317 315 316 318 320 320 317
319 322 325 327 328 328 328 328 326 322 318 321 322 323 323 323 324 323 323 324 324 322 321 321 323 321 318 319 321 319 319 319
319 322 325 327 328 328 328 328 327 323 319 318 321 323 323 323 323 323 323 322 323 321 321 321 321 321 320 319 320 318 319 318
322 324 324 326 328 328 328 328 328 325 320 318 319 321 323 323 322 322 322 323 322 322 321 320 319 318 318 319 320 320 320 319
326 325 325 326 327 328 328 328 328 326 324 320 319 320 321 322 322 322 322 322 322 322 322 321 319 316 316 319 319 319 319 319
328 327 327 326 326 326 327 328 327 327 325 323 320 319 320 322 322 322 321 321 321 321 322 322 322 319 316 316 317 318 318 319
324 327 327 327 327 327 327 327 327 327 327 326 324 321 320 320 322 322 323 321 321 321 321 321 321 321 321 319 318 316 317 318
315 319 323 325 325 325 325 325 326 326 327 327 326 324 323 321 320 320 322 322 321 321 320 320 320 320 321 321 319 315 314 315
312 314 316 319 321 322 323 325 326 326 326 325 325 325 325 325 324 323 323 322 322 321 321 320 321 321 320 320 320 320 321 319
310 311 314 314 316 317 319 321 323 325 325 323 323 324 324 325 324 324 324 325 324 324 323 322 322 321 321 320 320 320 320 321
309 308 311 312 313 314 314 316 318 320 322 322 322 322 324 324 325 324 325 325 325 325 325 324 324 324 323 323 322 321 321 321
310 310 310 310 312 312 312 313 313 314 315 317 318 320 321 322 323 323 324 323 323 324 325 325 325 325 325 325 324 323 323 323
Wind_Speed
35 41 35 31 29 26 21 19 17 17 15 16 17 19 20 22 25 35 32 32 39 35 33 33 35 38 41 45 44 38 34 28
32 43 38 34 31 29 24 22 19 19 19 18 18 18 17 19 24 31 37 36 38 40 33 32 34 39 41 43 43 40 32 27
34 41 40 37 34 31 27 24 20 18 18 19 21 18 17 18 21 25 38 41 40 41 37 37 37 39 41 43 46 42 34 29
38 42 42 41 38 34 29 25 20 19 18 18 17 19 16 19 21 26 26 37 43 37 37 36 36 39 41 41 44 43 39 32
39 46 46 44 40 35 29 25 21 20 21 23 23 23 23 24 24 27 30 38 42 37 36 38 36 40 39 38 38 39 35 35
44 49 49 47 42 36 31 26 23 21 23 23 23 25 24 22 23 25 22 38 35 36 36 40 42 38 40 35 34 37 34 35
39 49 51 48 43 36 32 28 24 22 25 25 26 27 27 25 24 27 28 32 35 34 37 35 36 37 43 39 36 40 37 36
34 42 48 49 45 40 35 31 28 24 25 27 29 29 28 28 23 24 32 34 36 35 33 38 39 40 43 41 41 41 40 40
28 43 51 55 48 43 38 33 30 26 25 26 27 30 28 27 25 23 27 31 34 36 36 38 38 39 39 40 40 42 44 40
30 42 49 54 50 44 40 34 30 27 26 27 28 31 31 31 29 26 27 31 35 38 38 38 38 38 39 38 42 42 45 37
27 41 46 49 50 43 37 33 29 26 26 26 26 29 31 30 27 29 30 30 34 37 40 41 41 42 42 40 38 37 42 46
18 26 30 37 43 41 39 34 29 26 25 25 26 26 29 30 30 30 28 31 31 35 37 40 43 46 46 46 43 42 45 45
16 16 18 26 31 33 35 31 29 25 23 24 25 24 26 30 34 33 32 31 32 33 33 35 40 46 49 50 50 50 50 50
30 27 21 16 12 13 18 21 25 25 22 22 24 25 27 27 29 32 33 32 33 34 36 38 38 39 44 50 52 52 52 52
33 35 30 25 20 15 12 11 15 18 21 23 24 24 25 26 25 27 29 33 35 35 37 39 40 41 44 46 51 56 58 58
28 32 33 30 27 22 14 7 8 15 16 16 19 19 22 24 26 25 27 30 32 33 35 38 42 43 46 47 49 53 56 59
20 24 31 28 25 23 17 15 13 6 11 14 15 16 18 21 26 30 31 33 35 37 40 41 42 44 45 47 49 49 51 53
21 24 27 24 25 22 17 15 10 9 9 9 10 10 12 17 22 25 26 29 34 40 43 45 46 47 46 47 48 49 50 52
18 19 20 19 20 20 17 16 14 12 10 7 3 1 5 8 11 17 25 27 32 36 38 42 47 50 50 49 47 47 49 51
Wind_Direction
235 218 213 215 215 213 216 212 214 224 225 219 215 219 217 221 215 206 199 202 194 202 199 194 191 188 187 186 185 188 194 187
231 213 208 207 208 211 215 214 212 220 219 208 194 197 199 212 217 210 202 206 198 199 200 193 198 193 188 188 187 186 190 191
213 205 205 206 208 211 215 216 219 217 220 212 207 195 197 195 204 210 209 210 202 199 201 193 197 195 189 190 190 185 190 196
202 203 206 205 208 212 213 217 218 216 210 207 208 216 207 200 209 219 218 213 211 203 202 196 198 193 190 190 192 196 195 200
214 203 204 209 210 211 211 215 214 212 208 207 208 211 207 204 206 212 207 208 209 206 206 200 193 194 196 194 197 202 202 201
219 208 210 210 209 208 209 212 210 213 210 208 204 210 211 207 203 209 214 206 201 207 207 204 197 198 200 204 209 208 212 213
226 218 207 208 208 206 207 212 212 214 210 207 206 208 209 212 207 202 205 204 205 215 209 201 198 203 203 206 209 219 219 221
223 209 209 208 206 205 205 212 213 215 211 208 204 207 215 211 215 211 203 206 214 214 209 201 205 213 211 214 218 218 220 223
224 221 215 210 206 205 208 211 214 214 212 211 202 207 211 212 215 216 215 209 205 207 209 210 213 217 214 221 222 226 226 225
234 216 213 211 206 207 210 212 215 216 212 210 206 205 208 211 213 218 223 222 216 214 215 216 219 221 221 226 229 235 224 223
214 204 208 210 208 208 209 214 218 217 214 214 212 210 211 215 211 214 221 226 227 227 226 226 226 228 228 227 229 232 231 232
192 186 193 201 204 206 210 210 216 218 219 219 219 218 215 218 222 221 222 227 229 229 231 233 234 231 229 231 231 234 236 238
144 156 174 192 199 203 207 211 218 222 224 225 230 229 225 222 224 226 228 228 229 232 238 240 239 239 236 238 238 238 240 242
92 114 124 140 169 205 218 223 229 231 232 237 236 237 237 238 232 233 233 233 232 235 239 242 247 247 245 243 241 240 243 245
69 87 95 108 123 141 164 199 225 236 241 242 245 243 248 248 255 249 244 240 239 241 240 242 244 245 247 250 249 246 247 249
64 80 88 95 97 95 99 141 209 221 238 251 255 258 258 259 259 261 260 253 253 254 252 248 247 247 248 247 248 250 252 254
54 67 77 75 81 87 88 93 90 147 199 220 238 249 255 261 268 262 260 261 260 258 258 259 259 257 256 253 251 251 252 254
50 49 69 73 71 70 70 73 89 104 123 155 173 199 216 235 245 259 268 267 266 263 262 261 261 262 263 262 260 257 258 260
58 47 55 63 73 73 66 65 67 70 72 68 60 240 245 248 248 243 245 252 258 268 271 270 267 267 269 268 266 263 262 263